Weather History for KBLH - June, 2013

Change the Weather History Date:

Saturday, June 15, 2013

  Actual Average Record
Temperature  
Mean Temperature 92 °F -  
Max Temperature 107 °F 101 °F 116 °F (1974)
Min Temperature 78 °F 71 °F 60 °F (1973)
Cooling Degree Days 26    
Growing Degree Days 42 (Base 50)    
Moisture  
Dew Point 33 °F    
Average Humidity 16    
Maximum Humidity 37    
Minimum Humidity 4    
Precipitation  
Precipitation 0.00 in - - ()
Sea Level Pressure  
Sea Level Pressure 29.72 in    
Wind  
Wind Speed 9 mph (South)    
Max Wind Speed 20 mph    
Max Gust Speed 24 mph    
Visibility 10 miles    
Events      
Averages and records for this station are not official NWS values.
T = Trace of Precipitation, MM = Missing Value Source: NWS Daily Summary

Daily Weather History Graph

Daily Weather History Graph

Search for Another Location

Airport or City:

Trip Planner

Search our weather history database for the weather conditions in past years. The results will help you decide how hot, cold, wet, or windy it might be!

Date:

Astronomy

Jun. 15, 2013 Rise Set
Actual Time 5:28 AM PDT 7:50 PM PDT
Civil Twilight 4:59 AM PDT 8:19 PM PDT
Nautical Twilight 4:23 AM PDT 8:55 PM PDT
Astronomical Twilight 3:44 AM PDT 9:34 PM PDT
Moon 11:49 AM PDT (6/15) No Moon Set
Length of Visible Light 15h 20m
Length of Day
14h 22m
Waxing Crescent, 40% of the Moon is Illuminated
Jun 15
Waxing Crescent
Jun 16
First Quarter
Jun 23
Full
Jun 29
Last Quarter
Jul 8
New

Hourly Weather History & Observations

Time (PDT) Temp. Dew Point Humidity Pressure Visibility Wind Dir Wind Speed Gust Speed Precip Events Conditions
12:52 AM 87.1 °F 42.1 °F 21% 29.68 in 10.0 mi Calm Calm - N/A   Clear
1:52 AM 82.9 °F 43.0 °F 24% 29.68 in 10.0 mi South 8.1 mph - N/A   Clear
2:52 AM 82.0 °F 46.9 °F 29% 29.69 in 10.0 mi South 9.2 mph - N/A   Clear
3:52 AM 79.0 °F 50.0 °F 36% 29.70 in 10.0 mi SSE 8.1 mph - N/A   Clear
4:52 AM 78.1 °F 50.0 °F 37% 29.71 in 10.0 mi South 9.2 mph - N/A   Clear
5:52 AM 79.0 °F 46.9 °F 32% 29.73 in 10.0 mi South 10.4 mph - N/A   Clear
6:52 AM 79.0 °F 46.9 °F 32% 29.75 in 10.0 mi South 6.9 mph - N/A   Clear
7:52 AM 84.0 °F 46.9 °F 27% 29.76 in 10.0 mi SSE 5.8 mph - N/A   Clear
8:52 AM 90.0 °F 37.0 °F 15% 29.77 in 10.0 mi South 10.4 mph - N/A   Clear
9:52 AM 93.0 °F 34.0 °F 12% 29.77 in 10.0 mi South 12.7 mph - N/A   Clear
10:52 AM 97.0 °F 34.0 °F 11% 29.77 in 10.0 mi SSE 11.5 mph - N/A   Clear
11:52 AM 100.0 °F 33.1 °F 10% 29.77 in 10.0 mi South 11.5 mph - N/A   Clear
12:52 PM 100.9 °F 28.0 °F 8% 29.76 in 10.0 mi SSE 12.7 mph 21.9 mph N/A   Clear
1:52 PM 102.9 °F 34.0 °F 9% 29.74 in 10.0 mi SSE 13.8 mph - N/A   Clear
2:52 PM 104.0 °F 35.1 °F 9% 29.72 in 10.0 mi South 16.1 mph 20.7 mph N/A   Clear
3:52 PM 104.0 °F 34.0 °F 9% 29.70 in 10.0 mi SSE 19.6 mph - N/A   Clear
4:52 PM 105.1 °F 5.0 °F 4% 29.69 in 10.0 mi SW 13.8 mph 24.2 mph N/A   Clear
5:52 PM 105.1 °F 7.0 °F 4% 29.68 in 10.0 mi SW 15.0 mph 20.7 mph N/A   Clear
6:52 PM 102.9 °F 12.9 °F 4% 29.69 in 10.0 mi WSW 15.0 mph - N/A   Clear
7:52 PM 99.0 °F 19.0 °F 6% 29.69 in 10.0 mi WSW 12.7 mph - N/A   Clear
8:52 PM 97.0 °F 21.9 °F 7% 29.70 in 10.0 mi WSW 11.5 mph - N/A   Clear
9:52 PM 91.9 °F 23.0 °F 8% 29.73 in 10.0 mi WSW 8.1 mph - N/A   Clear
10:52 PM 90.0 °F 27.0 °F 10% 29.74 in 10.0 mi WSW 10.4 mph - N/A   Clear
11:52 PM 88.0 °F 33.1 °F 14% 29.74 in 10.0 mi South 6.9 mph - N/A   Clear